TimePST,TemperatureF,Dew PointF,Humidity,Sea Level PressureIn,VisibilityMPH,Wind Direction,Wind SpeedMPH,Gust SpeedMPH,PrecipitationIn,Events,Conditions,WindDirDegrees,DateUTC
12:52 AM,19.0,15.1,85,30.40,10.0,Calm,Calm,-,N/A,,Clear,0,2013-11-24 08:52:00
1:52 AM,17.1,14.0,88,30.40,10.0,North,5.8,-,N/A,,Clear,10,2013-11-24 09:52:00
2:52 AM,19.0,14.0,81,30.40,10.0,Calm,Calm,-,N/A,,Clear,0,2013-11-24 10:52:00
3:52 AM,17.1,14.0,88,30.39,10.0,Calm,Calm,-,N/A,,Clear,0,2013-11-24 11:52:00
4:52 AM,15.1,12.0,88,30.39,10.0,NNE,4.6,-,N/A,,Clear,20,2013-11-24 12:52:00
5:52 AM,14.0,10.9,88,30.39,10.0,North,5.8,-,N/A,,Clear,360,2013-11-24 13:52:00
6:52 AM,12.9,10.0,88,30.40,10.0,North,3.5,-,N/A,,Clear,350,2013-11-24 14:52:00
7:52 AM,16.0,12.9,88,30.40,10.0,North,4.6,-,N/A,,Clear,350,2013-11-24 15:52:00
8:52 AM,19.0,15.1,85,30.42,10.0,Calm,Calm,-,N/A,,Clear,0,2013-11-24 16:52:00
9:52 AM,23.0,17.1,78,30.41,10.0,Calm,Calm,-,N/A,,Clear,0,2013-11-24 17:52:00
10:52 AM,28.9,19.9,69,30.41,10.0,Calm,Calm,-,N/A,,Clear,0,2013-11-24 18:52:00
11:52 AM,33.1,21.0,61,30.39,10.0,Calm,Calm,-,N/A,,Clear,0,2013-11-24 19:52:00
12:52 PM,35.1,19.9,54,30.38,10.0,Calm,Calm,-,N/A,,Clear,0,2013-11-24 20:52:00
1:52 PM,36.0,21.0,55,30.37,10.0,Calm,Calm,-,N/A,,Clear,0,2013-11-24 21:52:00
2:52 PM,37.0,21.0,52,30.37,10.0,Calm,Calm,-,N/A,,Clear,0,2013-11-24 22:52:00
3:52 PM,36.0,21.0,55,30.38,10.0,Calm,Calm,-,N/A,,Clear,0,2013-11-24 23:52:00
4:52 PM,34.0,21.0,59,30.38,10.0,SSW,3.5,-,N/A,,Clear,210,2013-11-25 00:52:00
5:52 PM,30.9,21.9,69,30.39,10.0,West,3.5,-,N/A,,Clear,260,2013-11-25 01:52:00
6:52 PM,28.9,19.9,69,30.41,10.0,Calm,Calm,-,N/A,,Clear,0,2013-11-25 02:52:00
7:52 PM,28.0,19.9,72,30.41,9.0,Calm,Calm,-,N/A,,Clear,0,2013-11-25 03:52:00
8:52 PM,25.0,19.9,81,30.43,8.0,SSE,3.5,-,N/A,,Clear,160,2013-11-25 04:52:00
9:52 PM,24.1,18.0,77,30.44,9.0,Calm,Calm,-,N/A,,Clear,0,2013-11-25 05:52:00
10:52 PM,19.9,17.1,89,30.45,9.0,Calm,Calm,-,N/A,,Clear,0,2013-11-25 06:52:00
11:52 PM,19.0,16.0,88,30.45,9.0,North,4.6,-,N/A,,Clear,10,2013-11-25 07:52:00